Location: Homewood
(41.1836°S, 175.9581°E)
Time: 15:48:51
(UTC+00:00)

BREEZE M DEB (TANK) - Visible Passes

Search period start: 12 July 2024 00:00
Search period end: 22 July 2024 00:00
Orbit: 305 x 11474 km, 49.5° (Epoch: 11 July)

Date Brightness Start Highest point End Pass type
(mag) Time Alt. Az. Time Alt. Az. Time Alt. Az.
12 Jul 4.3 05:46:11 10° W 05:58:59 51° SSW 06:02:44 13° SE visible
13 Jul 5.4 08:19:28 10° SW 08:20:24 13° SW 08:20:24 13° SW visible
14 Jul 3.8 06:43:37 10° W 06:51:15 33° SSW 06:52:40 26° SSE visible
16 Jul 4.4 07:39:02 10° WSW 07:42:31 23° SSW 07:42:31 23° SSW visible
17 Jul 4.2 06:01:50 10° W 06:11:42 38° SSW 06:14:43 15° SE visible
19 Jul 3.6 06:58:00 10° WSW 07:03:55 29° S 07:04:26 28° S visible
21 Jul 4.6 07:51:56 10° SW 07:54:03 20° SW 07:54:03 20° SW visible
